| time (UTC) | temp C | wind direction | speed KPH | gust KPH | rain 1hr cm | rain 24hr cm | rain mn cm | humidity % | barometer mb |
| 20260507211553 | 15 | 340 | 4.8 | 6.4 | 0.00 | 0.00 | 0.00 | 43 | 1009.9 |
| 20260507211049 | 14 | 288 | 3.2 | 4.8 | 0.00 | 0.00 | 0.00 | 45 | 1009.9 |
| 20260507210547 | 13 | 338 | 3.2 | 4.8 | 0.00 | 0.00 | 0.00 | 47 | 1009.7 |
| 20260507210043 | 13 | 327 | 3.2 | 4.8 | 0.00 | 0.00 | 0.00 | 46 | 1009.6 |
| 20260507205540 | 13 | 214 | 3.2 | 3.2 | 0.00 | 0.00 | 0.00 | 43 | 1009.7 |
| 20260507205037 | 14 | 6 | 4.8 | 4.8 | 0.00 | 0.00 | 0.00 | 46 | 1009.7 |
| 20260507204533 | 15 | 354 | 6.4 | 6.4 | 0.00 | 0.00 | 0.00 | 44 | 1009.6 |
| 20260507204031 | 15 | 346 | 6.4 | 9.7 | 0.00 | 0.00 | 0.00 | 44 | 1009.6 |
| 20260507203529 | 14 | 73 | 3.2 | 6.4 | 0.00 | 0.00 | 0.00 | 47 | 1009.9 |
| 20260507203026 | 14 | 329 | 3.2 | 4.8 | 0.00 | 0.00 | 0.00 | 42 | 1009.8 |
| 20260507202521 | 14 | 283 | 4.8 | 9.7 | 0.00 | 0.00 | 0.00 | 43 | 1009.7 |
| 20260507202018 | 14 | 245 | 6.4 | 9.7 | 0.00 | 0.00 | 0.00 | 41 | 1009.6 |
| 20260507201513 | 13 | 318 | 3.2 | 4.8 | 0.00 | 0.00 | 0.00 | 44 | 1009.9 |
| 20260507201010 | 14 | 346 | 8.0 | 11.3 | 0.00 | 0.00 | 0.00 | 42 | 1010.0 |
| 20260507200505 | 14 | 198 | 3.2 | 6.4 | 0.00 | 0.00 | 0.00 | 40 | 1010.2 |
| 20260507200001 | 13 | 145 | 6.4 | 9.7 | 0.00 | 0.00 | 0.00 | 42 | 1010.1 |
| 20260507195459 | 14 | 333 | 6.4 | 6.4 | 0.00 | 0.00 | 0.00 | 40 | 1010.3 |
| 20260507194956 | 14 | 172 | 3.2 | 4.8 | 0.00 | 0.00 | 0.00 | 44 | 1010.2 |
| 20260507194453 | 15 | 287 | 6.4 | 12.9 | 0.00 | 0.00 | 0.00 | 41 | 1010.3 |
| 20260507193948 | 14 | 269 | 3.2 | 4.8 | 0.00 | 0.00 | 0.00 | 45 | 1010.2 |
| 20260507193446 | 14 | 88 | 4.8 | 4.8 | 0.00 | 0.00 | 0.00 | 42 | 1010.1 |
| 20260507192942 | 13 | 326 | 9.7 | 11.3 | 0.00 | 0.00 | 0.00 | 44 | 1010.3 |
| 20260507192438 | 13 | 286 | 1.6 | 1.6 | 0.00 | 0.00 | 0.00 | 44 | 1010.4 |
| 20260507191936 | 14 | 329 | 3.2 | 4.8 | 0.00 | 0.00 | 0.00 | 41 | 1010.4 |
| 20260507191432 | 14 | 286 | 4.8 | 4.8 | 0.00 | 0.00 | 0.00 | 42 | 1010.3 |
| 20260507190928 | 14 | 319 | 11.3 | 16.1 | 0.00 | 0.00 | 0.00 | 43 | 1010.4 |
| 20260507190426 | 14 | 346 | 9.7 | 12.9 | 0.00 | 0.00 | 0.00 | 43 | 1010.4 |
| 20260507185925 | 13 | 322 | 11.3 | 12.9 | 0.00 | 0.00 | 0.00 | 45 | 1010.3 |
| 20260507185422 | 14 | 0 | 4.8 | 4.8 | 0.00 | 0.00 | 0.00 | 43 | 1010.5 |
| 20260507184918 | 13 | 295 | 8.0 | 9.7 | 0.00 | 0.00 | 0.00 | 46 | 1010.5 |
| 20260507184416 | 14 | 283 | 4.8 | 4.8 | 0.00 | 0.00 | 0.00 | 42 | 1010.5 |
| 20260507183914 | 15 | 237 | 3.2 | 4.8 | 0.00 | 0.00 | 0.00 | 42 | 1010.6 |
| 20260507183410 | 14 | 264 | 1.6 | 1.6 | 0.00 | 0.00 | 0.00 | 43 | 1010.7 |
| 20260507182908 | 15 | 330 | 6.4 | 6.4 | 0.00 | 0.00 | 0.00 | 41 | 1010.5 |
| 20260507182403 | 15 | 327 | 3.2 | 4.8 | 0.00 | 0.00 | 0.00 | 44 | 1010.6 |
| 20260507181900 | 14 | 326 | 4.8 | 9.7 | 0.00 | 0.00 | 0.00 | 44 | 1010.4 |
| 20260507181356 | 13 | 269 | 1.6 | 3.2 | 0.00 | 0.00 | 0.00 | 44 | 1010.5 |
| 20260507180853 | 13 | 272 | 4.8 | 6.4 | 0.00 | 0.00 | 0.00 | 43 | 1010.6 |
| 20260507180349 | 13 | 268 | 1.6 | 1.6 | 0.00 | 0.00 | 0.00 | 46 | 1010.7 |
| 20260507175845 | 12 | 1 | 12.9 | 14.5 | 0.00 | 0.00 | 0.00 | 45 | 1010.5 |
| 20260507175343 | 13 | 230 | 1.6 | 1.6 | 0.00 | 0.00 | 0.00 | 43 | 1010.8 |
| 20260507174840 | 13 | 302 | 3.2 | 3.2 | 0.00 | 0.00 | 0.00 | 42 | 1010.8 |
| 20260507174337 | 14 | 258 | 1.6 | 1.6 | 0.00 | 0.00 | 0.00 | 45 | 1010.9 |
| 20260507173835 | 13 | 220 | 3.2 | 3.2 | 0.00 | 0.00 | 0.00 | 48 | 1011.0 |
| 20260507173332 | 13 | 331 | 9.7 | 16.1 | 0.00 | 0.00 | 0.00 | 42 | 1011.2 |
| 20260507172828 | 13 | 336 | 1.6 | 1.6 | 0.00 | 0.00 | 0.00 | 46 | 1011.0 |
| 20260507172325 | 13 | 217 | 3.2 | 3.2 | 0.00 | 0.00 | 0.00 | 49 | 1011.2 |
| 20260507171820 | 13 | 294 | 3.2 | 4.8 | 0.00 | 0.00 | 0.00 | 43 | 1011.4 |
| 20260507171318 | 14 | 254 | 0.0 | 1.6 | 0.00 | 0.00 | 0.00 | 43 | 1011.3 |
| 20260507170815 | 13 | 302 | 6.4 | 9.7 | 0.00 | 0.00 | 0.00 | 44 | 1011.3 |
| 20260507170311 | 13 | 262 | 1.6 | 1.6 | 0.00 | 0.00 | 0.00 | 43 | 1011.4 |
| 20260507165807 | 13 | 284 | 3.2 | 4.8 | 0.00 | 0.00 | 0.00 | 46 | 1011.5 |
| 20260507165306 | 13 | 7 | 3.2 | 6.4 | 0.00 | 0.00 | 0.00 | 47 | 1011.5 |
| 20260507164759 | 13 | 223 | 1.6 | 1.6 | 0.00 | 0.00 | 0.00 | 47 | 1011.6 |
| 20260507164256 | 13 | 232 | 1.6 | 3.2 | 0.00 | 0.00 | 0.00 | 46 | 1011.5 |
| 20260507163754 | 13 | 218 | 1.6 | 3.2 | 0.00 | 0.00 | 0.00 | 40 | 1011.6 |
| 20260507163251 | 13 | 31 | 0.0 | 1.6 | 0.00 | 0.00 | 0.00 | 42 | 1011.7 |
| 20260507162747 | 13 | 357 | 6.4 | 9.7 | 0.00 | 0.00 | 0.00 | 49 | 1011.9 |
| 20260507162243 | 13 | 256 | 3.2 | 4.8 | 0.00 | 0.00 | 0.00 | 41 | 1011.9 |
| 20260507161740 | 12 | 288 | 3.2 | 3.2 | 0.00 | 0.00 | 0.00 | 43 | 1011.9 |
| 20260507161237 | 12 | 281 | 4.8 | 6.4 | 0.00 | 0.00 | 0.00 | 42 | 1012.1 |
| 20260507160732 | 12 | 347 | 4.8 | 6.4 | 0.00 | 0.00 | 0.00 | 49 | 1011.8 |
| 20260507160229 | 12 | 244 | 3.2 | 3.2 | 0.00 | 0.00 | 0.00 | 50 | 1011.9 |
| 20260507155725 | 11 | 281 | 0.0 | 0.0 | 0.00 | 0.00 | 0.00 | 51 | 1011.9 |
| 20260507155221 | 12 | 6 | 6.4 | 6.4 | 0.00 | 0.00 | 0.00 | 45 | 1011.9 |
| 20260507154718 | 11 | 283 | 1.6 | 1.6 | 0.00 | 0.00 | 0.00 | 49 | 1012.0 |
| 20260507154216 | 12 | 259 | 1.6 | 3.2 | 0.00 | 0.00 | 0.00 | 46 | 1012.0 |
| 20260507153712 | 12 | 249 | 4.8 | 4.8 | 0.00 | 0.00 | 0.00 | 49 | 1012.0 |
| 20260507153209 | 11 | 260 | 1.6 | 3.2 | 0.00 | 0.00 | 0.00 | 47 | 1012.2 |
| 20260507152705 | 12 | 63 | 1.6 | 3.2 | 0.00 | 0.00 | 0.00 | 45 | 1012.1 |
| 20260507152201 | 12 | 328 | 3.2 | 4.8 | 0.00 | 0.00 | 0.00 | 47 | 1012.2 |
| 20260507151657 | 11 | 348 | 3.2 | 4.8 | 0.00 | 0.00 | 0.00 | 46 | 1012.3 |
| 20260507151154 | 11 | 23 | 1.6 | 1.6 | 0.00 | 0.00 | 0.00 | 45 | 1012.2 |
| 20260507150651 | 11 | 347 | 8.0 | 9.7 | 0.00 | 0.00 | 0.00 | 45 | 1012.5 |
| 20260507150148 | 11 | 312 | 3.2 | 3.2 | 0.00 | 0.00 | 0.00 | 48 | 1012.4 |
| 20260507145643 | 11 | 35 | 4.8 | 4.8 | 0.00 | 0.00 | 0.00 | 43 | 1012.4 |
| 20260507145141 | 11 | 303 | 3.2 | 3.2 | 0.00 | 0.00 | 0.00 | 47 | 1012.6 |
| 20260507144637 | 11 | 9 | 6.4 | 6.4 | 0.00 | 0.00 | 0.00 | 45 | 1012.7 |
| 20260507144136 | 11 | 269 | 1.6 | 1.6 | 0.00 | 0.00 | 0.00 | 42 | 1012.7 |
| 20260507143632 | 12 | 289 | 3.2 | 3.2 | 0.00 | 0.00 | 0.00 | 48 | 1012.6 |
| 20260507143129 | 11 | 278 | 1.6 | 1.6 | 0.00 | 0.00 | 0.00 | 44 | 1012.7 |
| 20260507142624 | 11 | 278 | 1.6 | 3.2 | 0.00 | 0.00 | 0.00 | 50 | 1013.0 |
| 20260507142122 | 11 | 342 | 6.4 | 6.4 | 0.00 | 0.00 | 0.00 | 45 | 1013.0 |
| 20260507141618 | 11 | 271 | 3.2 | 3.2 | 0.00 | 0.00 | 0.00 | 48 | 1012.7 |
| 20260507141115 | 11 | 269 | 1.6 | 1.6 | 0.00 | 0.00 | 0.00 | 47 | 1013.2 |
| 20260507140611 | 10 | 215 | 1.6 | 1.6 | 0.00 | 0.00 | 0.00 | 49 | 1013.2 |
| 20260507140109 | 10 | 8 | 3.2 | 4.8 | 0.00 | 0.00 | 0.00 | 49 | 1013.2 |
| 20260507135606 | 10 | 14 | 6.4 | 6.4 | 0.00 | 0.00 | 0.00 | 49 | 1013.3 |
| 20260507135103 | 10 | 331 | 6.4 | 9.7 | 0.00 | 0.00 | 0.00 | 50 | 1013.5 |
| 20260507134559 | 10 | 260 | 3.2 | 4.8 | 0.00 | 0.00 | 0.00 | 51 | 1013.5 |
| 20260507134055 | 10 | 323 | 8.0 | 9.7 | 0.00 | 0.00 | 0.00 | 51 | 1013.4 |
| 20260507133551 | 10 | 233 | 1.6 | 1.6 | 0.00 | 0.00 | 0.00 | 55 | 1013.6 |
| 20260507133049 | 10 | 270 | 1.6 | 1.6 | 0.00 | 0.00 | 0.00 | 54 | 1013.5 |
| 20260507132546 | 10 | 353 | 0.0 | 1.6 | 0.00 | 0.00 | 0.00 | 52 | 1013.6 |
| 20260507132042 | 10 | 171 | 0.0 | 1.6 | 0.00 | 0.00 | 0.00 | 52 | 1013.4 |
| 20260507131539 | 9 | 143 | 0.0 | 1.6 | 0.00 | 0.00 | 0.00 | 53 | 1013.3 |
| 20260507131036 | 9 | 29 | 3.2 | 4.8 | 0.00 | 0.00 | 0.00 | 53 | 1013.5 |
| 20260507130533 | 9 | 1 | 6.4 | 6.4 | 0.00 | 0.00 | 0.00 | 54 | 1013.5 |
| 20260507130031 | 9 | 336 | 4.8 | 4.8 | 0.00 | 0.00 | 0.00 | 52 | 1013.5 |
| 20260507125529 | 8 | 318 | 4.8 | 4.8 | 0.00 | 0.00 | 0.00 | 54 | 1013.6 |
| 20260507125027 | 8 | 350 | 3.2 | 4.8 | 0.00 | 0.00 | 0.00 | 55 | 1013.6 |
| 20260507124523 | 8 | 4 | 3.2 | 4.8 | 0.00 | 0.00 | 0.00 | 55 | 1013.6 |
| 20260507124021 | 8 | 7 | 4.8 | 4.8 | 0.00 | 0.00 | 0.00 | 55 | 1013.6 |
| 20260507123519 | 8 | 232 | 3.2 | 3.2 | 0.00 | 0.00 | 0.00 | 59 | 1013.6 |
| 20260507123015 | 8 | 28 | 1.6 | 3.2 | 0.00 | 0.00 | 0.00 | 59 | 1013.6 |
| 20260507122510 | 8 | 286 | 0.0 | 0.0 | 0.00 | 0.00 | 0.00 | 61 | 1013.5 |
| 20260507122007 | 8 | 206 | 0.0 | 0.0 | 0.00 | 0.00 | 0.00 | 59 | 1013.6 |
| 20260507121502 | 8 | 160 | 1.6 | 1.6 | 0.00 | 0.00 | 0.00 | 65 | 1013.7 |
| 20260507120958 | 8 | 272 | 1.6 | 1.6 | 0.00 | 0.00 | 0.00 | 64 | 1013.5 |
| 20260507120454 | 8 | 250 | 1.6 | 1.6 | 0.00 | 0.00 | 0.00 | 64 | 1013.4 |
| 20260507115952 | 7 | 248 | 0.0 | 0.0 | 0.00 | 0.00 | 0.00 | 68 | 1013.5 |
| 20260507115448 | 7 | 278 | 1.6 | 1.6 | 0.00 | 0.00 | 0.00 | 68 | 1013.6 |
| 20260507114943 | 7 | 279 | 0.0 | 1.6 | 0.00 | 0.00 | 0.00 | 73 | 1013.6 |
| 20260507114440 | 6 | 282 | 1.6 | 1.6 | 0.00 | 0.00 | 0.00 | 75 | 1013.7 |
| 20260507113937 | 6 | 275 | 0.0 | 0.0 | 0.00 | 0.00 | 0.00 | 76 | 1013.5 |
| 20260507113434 | 6 | 272 | 0.0 | 1.6 | 0.00 | 0.00 | 0.00 | 75 | 1013.4 |
| 20260507112932 | 6 | 165 | 0.0 | 0.0 | 0.00 | 0.00 | 0.00 | 75 | 1013.3 |
| 20260507112429 | 6 | 276 | 1.6 | 1.6 | 0.00 | 0.00 | 0.00 | 76 | 1013.2 |
| 20260507111926 | 6 | 198 | 0.0 | 0.0 | 0.00 | 0.00 | 0.00 | 80 | 1013.1 |
| 20260507111423 | 5 | 199 | 0.0 | 0.0 | 0.00 | 0.00 | 0.00 | 81 | 1013.2 |
| 20260507110920 | 5 | 190 | 0.0 | 0.0 | 0.00 | 0.00 | 0.00 | 82 | 1013.1 |
| 20260507110415 | 5 | 191 | 0.0 | 0.0 | 0.00 | 0.00 | 0.00 | 83 | 1013.0 |
| 20260507105913 | 5 | 192 | 1.6 | 1.6 | 0.00 | 0.00 | 0.00 | 82 | 1013.0 |
| 20260507105409 | 4 | 192 | 1.6 | 3.2 | 0.00 | 0.00 | 0.00 | 83 | 1013.0 |
| 20260507104906 | 4 | 202 | 1.6 | 1.6 | 0.00 | 0.00 | 0.00 | 84 | 1012.7 |
| 20260507104402 | 4 | 201 | 0.0 | 0.0 | 0.00 | 0.00 | 0.00 | 84 | 1012.7 |
| 20260507103858 | 4 | 202 | 0.0 | 0.0 | 0.00 | 0.00 | 0.00 | 84 | 1012.6 |
| 20260507103355 | 4 | 202 | 0.0 | 0.0 | 0.00 | 0.00 | 0.00 | 82 | 1012.7 |
| 20260507102851 | 4 | 202 | 0.0 | 0.0 | 0.00 | 0.00 | 0.00 | 81 | 1012.7 |
| 20260507102348 | 4 | 201 | 0.0 | 0.0 | 0.00 | 0.00 | 0.00 | 80 | 1012.5 |
| 20260507101844 | 4 | 179 | 0.0 | 0.0 | 0.00 | 0.00 | 0.00 | 79 | 1012.7 |
| 20260507101344 | 5 | 179 | 0.0 | 1.6 | 0.00 | 0.00 | 0.00 | 76 | 1012.7 |
| 20260507100842 | 5 | 178 | 0.0 | 0.0 | 0.00 | 0.00 | 0.00 | 76 | 1012.6 |
| 20260507100340 | 5 | 178 | 0.0 | 0.0 | 0.00 | 0.00 | 0.00 | 77 | 1012.7 |
| 20260507095838 | 5 | 178 | 1.6 | 1.6 | 0.00 | 0.25 | 0.25 | 78 | 1012.6 |
| 20260507095334 | 5 | 179 | 0.0 | 0.0 | 0.00 | 0.25 | 0.25 | 77 | 1012.9 |
| 20260507094831 | 5 | 179 | 0.0 | 0.0 | 0.00 | 0.25 | 0.25 | 77 | 1012.6 |
| 20260507094328 | 5 | 179 | 0.0 | 0.0 | 0.00 | 0.25 | 0.25 | 78 | 1012.5 |
| 20260507093825 | 5 | 290 | 0.0 | 0.0 | 0.00 | 0.25 | 0.25 | 76 | 1012.4 |
| 20260507093324 | 5 | 299 | 0.0 | 0.0 | 0.00 | 0.25 | 0.25 | 74 | 1012.5 |
| 20260507092821 | 5 | 299 | 0.0 | 0.0 | 0.00 | 0.25 | 0.25 | 73 | 1012.7 |
| 20260507092317 | 6 | 300 | 0.0 | 0.0 | 0.00 | 0.25 | 0.25 | 74 | 1012.5 |
| 20260507091813 | 6 | 300 | 0.0 | 0.0 | 0.00 | 0.25 | 0.25 | 74 | 1012.6 |
| 20260507091311 | 6 | 304 | 0.0 | 0.0 | 0.00 | 0.25 | 0.25 | 74 | 1012.5 |
| 20260507090811 | 6 | 304 | 0.0 | 0.0 | 0.00 | 0.25 | 0.25 | 73 | 1012.5 |
| 20260507090308 | 6 | 304 | 0.0 | 0.0 | 0.00 | 0.25 | 0.25 | 72 | 1012.5 |
| 20260507085805 | 6 | 304 | 0.0 | 0.0 | 0.00 | 0.25 | 0.25 | 71 | 1012.4 |
| 20260507085301 | 6 | 304 | 0.0 | 0.0 | 0.00 | 0.25 | 0.25 | 71 | 1012.3 |
| 20260507084759 | 6 | 304 | 0.0 | 0.0 | 0.00 | 0.25 | 0.25 | 71 | 1012.6 |
| 20260507084255 | 6 | 304 | 0.0 | 0.0 | 0.00 | 0.25 | 0.25 | 71 | 1012.5 |
| 20260507083753 | 6 | 301 | 0.0 | 0.0 | 0.00 | 0.25 | 0.25 | 72 | 1012.5 |
| 20260507083249 | 6 | 327 | 0.0 | 0.0 | 0.00 | 0.25 | 0.25 | 72 | 1012.9 |
| 20260507082745 | 6 | 341 | 0.0 | 0.0 | 0.00 | 0.25 | 0.25 | 72 | 1012.7 |
| 20260507082241 | 6 | 352 | 0.0 | 0.0 | 0.00 | 0.25 | 0.25 | 73 | 1012.6 |
| 20260507081738 | 6 | 352 | 0.0 | 0.0 | 0.00 | 0.25 | 0.25 | 72 | 1012.6 |
| 20260507081234 | 6 | 352 | 0.0 | 0.0 | 0.00 | 0.25 | 0.25 | 72 | 1012.6 |
| 20260507080731 | 6 | 352 | 0.0 | 0.0 | 0.00 | 0.25 | 0.25 | 71 | 1012.7 |
| 20260507080227 | 6 | 352 | 0.0 | 0.0 | 0.00 | 0.25 | 0.25 | 73 | 1012.7 |
| 20260507075722 | 6 | 353 | 0.0 | 0.0 | 0.00 | 0.25 | 0.25 | 71 | 1012.6 |
| 20260507075219 | 6 | 0 | 0.0 | 0.0 | 0.00 | 0.25 | 0.25 | 72 | 1012.4 |
| 20260507074715 | 6 | 0 | 0.0 | 0.0 | 0.00 | 0.25 | 0.25 | 73 | 1012.5 |
| 20260507074214 | 6 | 0 | 0.0 | 0.0 | 0.00 | 0.25 | 0.25 | 76 | 1012.6 |
| 20260507073710 | 6 | 0 | 0.0 | 0.0 | 0.00 | 0.25 | 0.25 | 77 | 1012.6 |
| 20260507073206 | 6 | 0 | 0.0 | 0.0 | 0.00 | 0.25 | 0.25 | 77 | 1012.6 |
| 20260507072704 | 6 | 0 | 0.0 | 0.0 | 0.00 | 0.25 | 0.25 | 79 | 1012.6 |
| 20260507072201 | 6 | 0 | 0.0 | 0.0 | 0.00 | 0.25 | 0.25 | 78 | 1012.7 |
| 20260507071659 | 6 | 23 | 0.0 | 0.0 | 0.00 | 0.25 | 0.25 | 75 | 1012.4 |
| 20260507071155 | 6 | 343 | 1.6 | 1.6 | 0.00 | 0.25 | 0.25 | 79 | 1012.5 |
| 20260507070652 | 6 | 4 | 0.0 | 0.0 | 0.00 | 0.25 | 0.25 | 77 | 1012.6 |
| 20260507070149 | 6 | 4 | 0.0 | 0.0 | 0.00 | 0.25 | 0.25 | 77 | 1012.6 |
| 20260507065646 | 6 | 353 | 0.0 | 0.0 | 0.00 | 0.25 | 0.25 | 76 | 1012.6 |
| 20260507065142 | 6 | 322 | 3.2 | 3.2 | 0.00 | 0.25 | 0.25 | 77 | 1012.7 |
| 20260507064640 | 6 | 2 | 1.6 | 1.6 | 0.00 | 0.25 | 0.25 | 78 | 1012.6 |
| 20260507064138 | 6 | 337 | 0.0 | 0.0 | 0.00 | 0.25 | 0.25 | 78 | 1012.4 |
| 20260507063636 | 6 | 16 | 0.0 | 0.0 | 0.00 | 0.25 | 0.25 | 80 | 1012.5 |
| 20260507063132 | 6 | 4 | 0.0 | 1.6 | 0.00 | 0.25 | 0.25 | 80 | 1012.6 |
| 20260507062629 | 7 | 6 | 1.6 | 1.6 | 0.00 | 0.25 | 0.25 | 81 | 1012.4 |
| 20260507062127 | 6 | 17 | 0.0 | 1.6 | 0.00 | 0.25 | 0.25 | 81 | 1012.4 |
| 20260507061624 | 7 | 17 | 0.0 | 1.6 | 0.00 | 0.25 | 0.25 | 83 | 1012.6 |
| 20260507061122 | 7 | 12 | 0.0 | 0.0 | 0.00 | 0.25 | 0.25 | 83 | 1012.7 |
| 20260507060620 | 7 | 340 | 1.6 | 1.6 | 0.00 | 0.25 | 0.25 | 82 | 1012.6 |
| 20260507060116 | 7 | 334 | 1.6 | 1.6 | 0.00 | 0.25 | 0.25 | 83 | 1012.7 |
| 20260507055612 | 7 | 13 | 0.0 | 1.6 | 0.00 | 0.25 | 0.25 | 83 | 1012.7 |
| 20260507055108 | 7 | 6 | 0.0 | 0.0 | 0.00 | 0.25 | 0.25 | 84 | 1013.0 |
| 20260507054604 | 7 | 11 | 0.0 | 0.0 | 0.00 | 0.25 | 0.25 | 86 | 1013.1 |
| 20260507054101 | 7 | 15 | 0.0 | 0.0 | 0.00 | 0.25 | 0.25 | 85 | 1013.1 |
| 20260507053559 | 7 | 10 | 0.0 | 0.0 | 0.00 | 0.25 | 0.25 | 85 | 1013.2 |
| 20260507053058 | 7 | 10 | 0.0 | 0.0 | 0.00 | 0.25 | 0.25 | 85 | 1013.0 |
| 20260507052555 | 7 | 9 | 0.0 | 0.0 | 0.00 | 0.25 | 0.25 | 85 | 1013.2 |
| 20260507052051 | 7 | 9 | 0.0 | 1.6 | 0.00 | 0.25 | 0.25 | 85 | 1013.2 |
| 20260507051549 | 7 | 356 | 1.6 | 1.6 | 0.00 | 0.25 | 0.25 | 86 | 1013.1 |
| 20260507051046 | 7 | 12 | 0.0 | 1.6 | 0.00 | 0.25 | 0.25 | 87 | 1013.1 |
| 20260507050542 | 7 | 18 | 0.0 | 0.0 | 0.00 | 0.25 | 0.25 | 89 | 1013.3 |
| 20260507050039 | 7 | 4 | 0.0 | 1.6 | 0.00 | 0.25 | 0.25 | 89 | 1013.2 |
| 20260507045536 | 7 | 10 | 0.0 | 1.6 | 0.00 | 0.25 | 0.25 | 90 | 1012.9 |
| 20260507045033 | 7 | 10 | 0.0 | 0.0 | 0.00 | 0.25 | 0.25 | 90 | 1012.9 |
| 20260507044529 | 7 | 10 | 0.0 | 0.0 | 0.00 | 0.25 | 0.25 | 90 | 1013.0 |
| 20260507044026 | 7 | 10 | 0.0 | 0.0 | 0.00 | 0.25 | 0.25 | 90 | 1013.0 |
| 20260507043522 | 7 | 10 | 1.6 | 1.6 | 0.00 | 0.25 | 0.25 | 90 | 1013.1 |
| 20260507043020 | 7 | 0 | 0.0 | 0.0 | 0.00 | 0.25 | 0.25 | 89 | 1013.0 |
| 20260507042515 | 7 | 354 | 1.6 | 1.6 | 0.00 | 0.25 | 0.25 | 89 | 1013.1 |
| 20260507042011 | 7 | 17 | 0.0 | 0.0 | 0.00 | 0.25 | 0.25 | 89 | 1012.6 |
| 20260507041508 | 7 | 14 | 1.6 | 3.2 | 0.00 | 0.25 | 0.25 | 89 | 1012.9 |
| 20260507041005 | 7 | 349 | 6.4 | 6.4 | 0.00 | 0.25 | 0.25 | 89 | 1013.2 |
| 20260507040501 | 8 | 5 | 4.8 | 6.4 | 0.00 | 0.25 | 0.25 | 88 | 1013.0 |
| 20260507035957 | 8 | 320 | 3.2 | 3.2 | 0.00 | 0.25 | 0.25 | 87 | 1013.3 |
| 20260507035454 | 8 | 20 | 3.2 | 4.8 | 0.00 | 0.25 | 0.25 | 87 | 1012.9 |
| 20260507034950 | 8 | 343 | 0.0 | 0.0 | 0.00 | 0.25 | 0.25 | 87 | 1013.0 |
| 20260507034447 | 8 | 347 | 0.0 | 0.0 | 0.00 | 0.25 | 0.25 | 87 | 1012.9 |
| 20260507033945 | 8 | 325 | 0.0 | 0.0 | 0.00 | 0.25 | 0.25 | 87 | 1013.1 |
| 20260507033443 | 8 | 322 | 1.6 | 1.6 | 0.00 | 0.25 | 0.25 | 87 | 1013.3 |
| 20260507032940 | 8 | 275 | 0.0 | 0.0 | 0.00 | 0.25 | 0.25 | 87 | 1013.3 |
| 20260507032437 | 8 | 347 | 0.0 | 0.0 | 0.00 | 0.25 | 0.25 | 88 | 1013.2 |
| 20260507031932 | 8 | 26 | 0.0 | 1.6 | 0.00 | 0.25 | 0.25 | 88 | 1013.2 |
| 20260507031429 | 8 | 323 | 0.0 | 0.0 | 0.00 | 0.25 | 0.25 | 89 | 1013.0 |
| 20260507030926 | 8 | 311 | 0.0 | 0.0 | 0.00 | 0.25 | 0.25 | 89 | 1013.3 |
| 20260507030423 | 8 | 312 | 0.0 | 0.0 | 0.00 | 0.25 | 0.25 | 89 | 1013.1 |
| 20260507025921 | 8 | 312 | 0.0 | 0.0 | 0.00 | 0.25 | 0.25 | 89 | 1012.9 |
| 20260507025418 | 8 | 281 | 0.0 | 0.0 | 0.00 | 0.25 | 0.25 | 89 | 1012.7 |
| 20260507024915 | 8 | 281 | 0.0 | 0.0 | 0.00 | 0.25 | 0.25 | 89 | 1012.5 |
| 20260507024413 | 8 | 281 | 0.0 | 0.0 | 0.00 | 0.25 | 0.25 | 88 | 1012.6 |
| 20260507023908 | 8 | 281 | 0.0 | 0.0 | 0.00 | 0.25 | 0.25 | 88 | 1012.7 |
| 20260507023405 | 8 | 281 | 0.0 | 0.0 | 0.00 | 0.25 | 0.25 | 88 | 1012.9 |
| 20260507022903 | 8 | 281 | 0.0 | 0.0 | 0.00 | 0.25 | 0.25 | 88 | 1012.9 |
| 20260507022359 | 8 | 281 | 0.0 | 0.0 | 0.00 | 0.25 | 0.25 | 88 | 1012.7 |
| 20260507021855 | 8 | 281 | 0.0 | 0.0 | 0.00 | 0.25 | 0.25 | 88 | 1012.6 |
| 20260507021350 | 8 | 282 | 0.0 | 1.6 | 0.00 | 0.25 | 0.25 | 88 | 1012.9 |
| 20260507020848 | 8 | 188 | 0.0 | 0.0 | 0.00 | 0.25 | 0.25 | 88 | 1012.6 |
| 20260507020345 | 8 | 188 | 0.0 | 0.0 | 0.00 | 0.25 | 0.25 | 88 | 1012.5 |
| 20260507015842 | 8 | 188 | 0.0 | 0.0 | 0.00 | 0.25 | 0.25 | 88 | 1012.3 |
| 20260507015340 | 8 | 133 | 0.0 | 0.0 | 0.00 | 0.25 | 0.25 | 87 | 1012.1 |
| 20260507014837 | 8 | 40 | 0.0 | 0.0 | 0.00 | 0.25 | 0.25 | 87 | 1012.1 |
| 20260507014333 | 8 | 324 | 0.0 | 0.0 | 0.00 | 0.25 | 0.25 | 87 | 1012.2 |
| 20260507013829 | 8 | 324 | 0.0 | 0.0 | 0.00 | 0.25 | 0.25 | 87 | 1012.2 |
| 20260507013327 | 8 | 323 | 0.0 | 1.6 | 0.00 | 0.25 | 0.25 | 87 | 1012.3 |
| 20260507012824 | 8 | 323 | 0.0 | 0.0 | 0.00 | 0.25 | 0.25 | 87 | 1012.1 |
| 20260507012320 | 8 | 330 | 0.0 | 0.0 | 0.00 | 0.25 | 0.25 | 86 | 1011.9 |
| 20260507011817 | 8 | 330 | 0.0 | 0.0 | 0.00 | 0.25 | 0.25 | 86 | 1012.0 |
| 20260507011314 | 8 | 330 | 0.0 | 1.6 | 0.00 | 0.25 | 0.25 | 85 | 1012.3 |
| 20260507010814 | 8 | 313 | 1.6 | 3.2 | 0.00 | 0.25 | 0.25 | 86 | 1012.1 |
| 20260507010310 | 8 | 334 | 0.0 | 1.6 | 0.00 | 0.25 | 0.25 | 86 | 1012.2 |
| 20260507005807 | 8 | 0 | 0.0 | 0.0 | 0.00 | 0.25 | 0.25 | 86 | 1012.2 |
| 20260507005305 | 8 | 319 | 1.6 | 1.6 | 0.00 | 0.25 | 0.25 | 85 | 1012.3 |
| 20260507004800 | 8 | 340 | 1.6 | 3.2 | 0.00 | 0.25 | 0.25 | 85 | 1012.2 |
| 20260507004258 | 8 | 344 | 1.6 | 1.6 | 0.00 | 0.25 | 0.25 | 85 | 1012.2 |
| 20260507003754 | 8 | 338 | 1.6 | 3.2 | 0.00 | 0.25 | 0.25 | 85 | 1012.3 |
| 20260507003249 | 8 | 32 | 1.6 | 1.6 | 0.00 | 0.25 | 0.25 | 85 | 1012.3 |
| 20260507002745 | 8 | 10 | 1.6 | 1.6 | 0.00 | 0.25 | 0.25 | 86 | 1012.3 |
| 20260507002242 | 8 | 344 | 0.0 | 1.6 | 0.00 | 0.25 | 0.25 | 86 | 1012.5 |
| 20260507001738 | 8 | 308 | 1.6 | 1.6 | 0.00 | 0.25 | 0.25 | 86 | 1012.7 |
| 20260507001236 | 8 | 342 | 1.6 | 1.6 | 0.00 | 0.25 | 0.25 | 86 | 1012.6 |
| 20260507000732 | 8 | 216 | 1.6 | 3.2 | 0.00 | 0.25 | 0.25 | 86 | 1012.6 |
| 20260507000228 | 8 | 351 | 3.2 | 3.2 | 0.00 | 0.25 | 0.25 | 85 | 1012.5 |
| 20260506235725 | 9 | 25 | 3.2 | 6.4 | 0.00 | 0.25 | 0.25 | 85 | 1012.4 |
| 20260506235220 | 9 | 329 | 3.2 | 3.2 | 0.00 | 0.25 | 0.25 | 85 | 1012.2 |
| 20260506234717 | 9 | 16 | 3.2 | 4.8 | 0.00 | 0.25 | 0.25 | 85 | 1012.1 |
| 20260506234215 | 9 | 16 | 1.6 | 1.6 | 0.00 | 0.25 | 0.25 | 85 | 1011.8 |
| 20260506233712 | 9 | 336 | 3.2 | 4.8 | 0.00 | 0.25 | 0.25 | 86 | 1012.1 |
| 20260506233208 | 9 | 358 | 3.2 | 3.2 | 0.00 | 0.25 | 0.25 | 86 | 1012.3 |
| 20260506232706 | 9 | 1 | 3.2 | 4.8 | 0.00 | 0.25 | 0.25 | 87 | 1012.1 |
| 20260506232200 | 10 | 312 | 0.0 | 1.6 | 0.00 | 0.25 | 0.25 | 87 | 1012.0 |
| 20260506231658 | 10 | 323 | 3.2 | 3.2 | 0.00 | 0.25 | 0.25 | 87 | 1011.9 |
| 20260506231156 | 10 | 334 | 4.8 | 4.8 | 0.00 | 0.25 | 0.25 | 88 | 1011.8 |
| 20260506230652 | 10 | 313 | 1.6 | 1.6 | 0.00 | 0.25 | 0.25 | 88 | 1011.7 |
| 20260506230149 | 10 | 324 | 3.2 | 4.8 | 0.00 | 0.25 | 0.25 | 88 | 1011.8 |
| 20260506225646 | 10 | 330 | 4.8 | 4.8 | 0.00 | 0.25 | 0.25 | 88 | 1011.6 |
| 20260506225143 | 10 | 339 | 4.8 | 6.4 | 0.00 | 0.25 | 0.25 | 89 | 1011.4 |
| 20260506224639 | 10 | 334 | 6.4 | 6.4 | 0.00 | 0.25 | 0.25 | 89 | 1011.4 |
| 20260506224136 | 10 | 320 | 6.4 | 9.7 | 0.00 | 0.25 | 0.25 | 89 | 1011.4 |
| 20260506223632 | 10 | 21 | 1.6 | 3.2 | 0.00 | 0.25 | 0.25 | 89 | 1011.4 |
| 20260506223128 | 10 | 319 | 3.2 | 4.8 | 0.00 | 0.25 | 0.25 | 88 | 1011.5 |
| 20260506222625 | 10 | 9 | 3.2 | 3.2 | 0.00 | 0.25 | 0.25 | 89 | 1011.5 |
| 20260506222121 | 10 | 252 | 1.6 | 1.6 | 0.00 | 0.25 | 0.25 | 90 | 1011.4 |
| 20260506221619 | 10 | 212 | 0.0 | 0.0 | 0.00 | 0.25 | 0.25 | 90 | 1011.3 |
| 20260506221117 | 10 | 264 | 0.0 | 1.6 | 0.00 | 0.25 | 0.25 | 90 | 1011.3 |
| 20260506220613 | 10 | 259 | 0.0 | 0.0 | 0.00 | 0.25 | 0.25 | 91 | 1011.4 |
| 20260506220109 | 10 | 267 | 0.0 | 0.0 | 0.00 | 0.25 | 0.25 | 92 | 1011.3 |
| 20260506215606 | 10 | 255 | 0.0 | 0.0 | 0.00 | 0.25 | 0.25 | 92 | 1011.4 |
| 20260506215101 | 10 | 12 | 1.6 | 3.2 | 0.00 | 0.25 | 0.25 | 92 | 1011.3 |
| 20260506214558 | 9 | 334 | 1.6 | 1.6 | 0.00 | 0.25 | 0.25 | 93 | 1011.3 |
| 20260506214056 | 9 | 17 | 4.8 | 6.4 | 0.00 | 0.25 | 0.25 | 93 | 1011.2 |
| 20260506213554 | 10 | 318 | 6.4 | 6.4 | 0.00 | 0.25 | 0.25 | 92 | 1010.8 |
| 20260506213051 | 9 | 4 | 1.6 | 1.6 | 0.00 | 0.25 | 0.25 | 92 | 1011.2 |
| 20260506212547 | 10 | 327 | 4.8 | 4.8 | 0.00 | 0.25 | 0.25 | 92 | 1010.8 |
| 20260506212042 | 10 | 343 | 3.2 | 3.2 | 0.00 | 0.25 | 0.25 | 92 | 1010.8 |